Dewpoint
48 49 50 51 48 46 47 48 49 48 46 46 46 46 46 46 47 47 47 48 49 49 48 46 46 44 43 40 39 39 38 37
49 49 49 49 50 49 49 50 50 48 47 45 45 45 45 46 47 48 49 49 50 49 49 46 45 44 43 41 39 38 38 37
47 46 47 47 47 48 48 48 47 47 48 49 48 47 46 46 46 45 46 46 46 47 48 48 49 49 47 45 41 39 37 37
46 47 46 46 47 47 47 46 44 46 47 47 47 46 45 44 43 42 43 43 43 44 43 44 44 45 45 44 40 36 36 36
42 43 44 45 46 45 45 45 46 45 41 37 38 37 35 37 39 40 39 38 37 37 37 38 40 40 40 39 38 37 35 34
41 41 42 42 42 42 42 42 36 34 33 33 33 32 34 35 35 35 36 37 37 36 36 35 35 37 38 38 37 36 37 35
33 33 34 35 34 34 34 34 33 32 32 31 31 31 32 32 32 32 34 35 36 36 36 35 35 36 37 37 37 37 36 35
31 31 32 33 32 32 30 30 30 31 30 30 31 31 31 30 31 32 32 34 35 36 36 36 35 35 35 35 35 36 36 35
31 32 31 29 27 27 27 27 28 28 30 31 31 31 32 32 33 32 33 33 34 34 35 35 35 35 35 35 34 34 35 36
31 28 26 26 25 26 27 27 29 30 30 29 30 32 31 32 33 33 33 33 33 34 35 34 33 33 33 34 34 33 34 35
26 24 24 25 26 27 27 29 30 29 30 30 31 32 33 34 34 33 34 36 36 36 35 35 32 31 30 30 28 31 31 32
23 24 25 25 26 26 28 30 29 30 31 33 33 34 35 34 34 35 36 36 36 36 36 35 34 33 32 30 28 32 30 31
23 24 25 25 25 26 28 30 30 32 34 35 34 34 34 34 36 36 36 35 36 35 35 35 35 36 34 32 32 31 30 29
23 24 25 25 25 27 29 30 31 33 34 34 33 34 35 35 34 35 33 33 34 35 33 33 35 34 34 33 33 32 31 32
23 23 24 24 25 28 29 30 34 35 35 35 34 34 35 35 33 33 32 35 32 32 32 33 33 33 33 34 33 32 32 32
22 22 23 24 24 28 29 33 35 35 35 34 33 33 35 35 34 35 33 32 32 31 31 32 33 33 33 33 33 32 32 32
21 21 22 22 23 28 31 35 35 34 34 34 33 32 34 35 35 32 33 32 31 31 31 31 32 32 34 35 34 32 32 32
20 21 21 22 25 29 32 35 36 35 34 33 31 33 33 34 35 33 32 32 32 31 30 31 32 32 34 35 35 32 31 31
20 21 22 23 27 30 34 36 37 35 34 33 32 33 34 33 34 34 33 32 32 32 31 31 33 33 35 35 34 32 32 32
Lifted_Index
1 1 2 2 3 3 3 3 4 4 4 4 4 4 3 3 4 4 4 4 4 4 4 4 4 5 5 6 6 6 7 7
2 2 2 3 3 3 4 4 4 4 4 4 4 3 3 3 4 4 4 4 4 4 4 5 5 5 6 6 6 6 7 7
2 2 3 3 3 4 4 4 4 4 4 4 4 4 4 4 4 4 4 4 4 5 5 6 6 6 6 7 6 6 7 7
2 2 3 3 3 4 4 4 4 4 4 4 5 5 6 6 6 5 5 5 6 6 7 7 8 8 8 8 7 7 7 7
2 2 3 3 3 3 3 3 3 4 5 6 7 8 8 9 8 8 8 8 8 9 9 9 9 9 9 9 8 8 8 8
3 3 2 2 3 3 4 4 5 6 7 9 10 10 10 11 11 11 11 11 11 11 11 11 11 11 11 11 10 9 9 9
3 3 3 3 3 4 5 6 7 8 10 11 11 12 12 12 12 12 12 12 12 12 12 12 12 12 12 12 12 11 10 10
3 3 3 4 5 6 7 8 9 11 11 12 12 12 13 13 13 13 13 12 12 12 12 13 13 13 13 13 13 13 12 11
3 4 4 5 7 8 9 10 11 12 13 13 13 13 13 13 13 13 12 12 12 12 12 12 13 13 13 13 13 13 13 13
4 5 6 7 8 9 10 11 12 13 13 13 13 13 13 12 12 12 12 12 12 11 12 12 12 12 13 13 13 13 13 13
6 6 7 8 9 10 11 12 13 13 13 13 12 12 12 12 11 12 12 12 12 11 11 12 12 12 12 12 12 13 13 13
7 7 8 9 10 11 12 12 13 13 13 12 11 12 12 12 11 12 12 12 11 11 11 11 11 11 11 12 12 12 12 12
8 8 8 9 10 11 12 13 13 13 12 11 11 11 11 11 12 12 12 11 11 11 11 11 11 11 11 11 11 12 12 12
8 8 8 9 10 11 12 12 12 12 11 10 11 11 11 12 12 12 12 11 11 11 11 11 11 11 11 11 11 11 11 11
8 8 9 10 11 11 10 10 11 10 10 10 11 11 12 12 12 12 12 11 11 11 11 11 11 10 11 11 11 11 11 11
8 9 10 11 11 10 9 9 9 10 11 11 11 12 13 13 12 12 11 11 11 11 11 10 10 10 11 12 12 12 12 11
9 9 10 11 10 9 8 8 9 10 11 11 12 13 13 13 12 12 11 11 11 10 10 10 10 10 10 12 12 12 12 12
10 10 11 11 10 8 7 8 9 10 11 12 13 14 14 13 13 12 11 11 10 10 9 9 9 9 10 11 12 12 12 12
10 11 11 11 10 8 7 8 9 10 11 12 13 14 14 14 13 12 11 10 10 9 9 9 8 8 9 11 12 12 12 12